This is the latest recevied weather packets stored in our database for station/object N2PUI. If no packets are shown the sender has not sent any weather packets the latest 10 day(s).
| Time | Temp. | Humidity | Pressure | Rain* | Wind** | Luminosity | Snow |
|---|---|---|---|---|---|---|---|
| 1777854250 | 11.67° C | 47% | 1011.2 hPa | 0 mm | - | 0 W/m² | - |
| 1777853947 | 11.67° C | 46% | 1011.2 hPa | 0 mm | - | 0 W/m² | - |
| 1777853645 | 11.67° C | 46% | 1011 hPa | 0 mm | - | 0 W/m² | - |
| 1777853341 | 11.67° C | 47% | 1011.1 hPa | 0 mm | - | 0 W/m² | - |
| 1777853038 | 11.11° C | 51% | 1011 hPa | 0 mm | - | 2 W/m² | - |
| 1777852735 | 11.11° C | 51% | 1010.9 hPa | 0 mm | - | 2 W/m² | - |
| 1777852433 | 11.11° C | 51% | 1010.7 hPa | 0 mm | - | 3 W/m² | - |
| 1777852130 | 11.11° C | 49% | 1010.6 hPa | 0 mm | - | 5 W/m² | - |
| 1777851828 | 11.11° C | 49% | 1010.7 hPa | 0 mm | - | 9 W/m² | - |
| 1777851526 | 11.67° C | 49% | 1010.6 hPa | 0 mm | - | 16 W/m² | - |
| 1777851222 | 12.22° C | 48% | 1010.4 hPa | 0 mm | - | 24 W/m² | - |
| 1777850918 | 12.78° C | 43% | 1010.4 hPa | 0 mm | - | 28 W/m² | - |
| 1777850616 | 13.33° C | 41% | 1010.4 hPa | 0 mm | - | 32 W/m² | - |
| 1777850314 | 13.33° C | 41% | 1010.3 hPa | 0 mm | - | 40 W/m² | - |
| 1777850010 | 13.33° C | 42% | 1010.6 hPa | 0 mm | - | 51 W/m² | - |
| 1777849706 | 12.78° C | 42% | 1010.5 hPa | 0 mm | - | 74 W/m² | - |
| 1777849403 | 12.78° C | 42% | 1010.3 hPa | 0 mm | - | 62 W/m² | - |
| 1777849101 | 12.78° C | 44% | 1010.4 hPa | 0 mm | - | 56 W/m² | - |
| 1777848797 | 12.78° C | 44% | 1010.5 hPa | 0 mm | - | 59 W/m² | - |
| 1777848493 | 12.78° C | 43% | 1010.5 hPa | 0 mm | - | 66 W/m² | - |
| 1777848191 | 12.78° C | 43% | 1010.4 hPa | 0 mm | - | 55 W/m² | - |
| 1777847888 | 12.78° C | 42% | 1010.7 hPa | 0 mm | - | 73 W/m² | - |
| 1777847586 | 13.33° C | 42% | 1010.4 hPa | 0 mm | - | 145 W/m² | - |
| 1777847281 | 12.78° C | 41% | 1010.4 hPa | 0 mm | - | 167 W/m² | - |
| 1777846980 | 13.33° C | 41% | 1010.6 hPa | 0 mm | - | 175 W/m² | - |
* Rain latest hour (hover to see other rain measurements)
** Current wind speed in m/s (hover to see current wind gust speed)